Location: Lucerne Valley
(34.4439°N, 116.9669°E)
Time: 04:29:25
(UTC-08:00)

OTV 5 (USA 277) - Pass Details

Date: 07 October 2017
Orbit: 404 x 417 km, 43.0° (Epoch: 07 September)

Event Time Altitude Azimuth Distance (km) Brightness Sun altitude
Rises 03:40:35 0° 205° (SSW) 2,337 ? -11.6°
Reaches altitude 10° 03:43:07 10° 185° (S) 1,478 ? -12.1°
Maximum altitude 03:45:29 18° 140° (SE) 1,087 ? -12.6°
Enters shadow 03:46:04 17° 126° (SE) 1,115 ? -12.7°
